20050701,000027,185533,32.707195,-117.236735,0.0,21.289,0.048,0.086,1268.59,0.0,0.708,18.781,18.743, NaN,0.000,   NaN,18.34,1010.80,84.73,18.70,106.4,109.7,1.8,2.4,289.4,292.7,1.8,2.4,NaN, NaN,28.6,266.5,192.1,1120176029,1120176029,1,0.0,000028,000029,183.3,32.707301,-117.236715,NaN,NaN,NaN,21.294, NaN,NaN,NaN, NaN, NaN
20050701,000056,185561,32.707195,-117.236740,0.0,21.291,0.048,0.086,1090.11,0.0,0.727,18.773,18.734, NaN,0.000,   NaN,18.38,1010.79,85.18,18.69,125.2,122.8,1.9,2.2,308.5,306.1,1.9,2.2,NaN, NaN,28.5,266.5,192.1,1120176058,1120176058,1,0.0,000057,000058,183.5,32.707300,-117.236708,NaN,NaN,NaN,21.296, NaN,NaN,NaN, NaN, NaN
20050701,000126,185591,32.707196,-117.236735,0.0,21.291,0.048,0.086,1290.69,0.0,0.727,18.759,18.719, NaN,0.000,   NaN,18.36,1010.77,84.98,18.69,128.5,129.2,2.5,2.9,311.8,312.5,2.5,2.9,NaN, NaN,29.5,266.5,192.1,1120176088,1120176088,1,0.0,000087,000088,182.6,32.707305,-117.236703,NaN,NaN,NaN,21.296, NaN,NaN,NaN, NaN, NaN
20050701,000156,185622,32.707193,-117.236740,0.0,21.293,0.048,0.086,1311.37,0.0,0.727,18.748,18.709, NaN,0.000,   NaN,18.22,1010.79,84.76,18.63,133.1,130.9,2.7,3.4,316.2,313.9,2.7,3.4,NaN, NaN,29.8,266.5,192.1,1120176118,1120176118,1,0.0,000117,000118,183.1,32.707313,-117.236698,NaN,NaN,NaN,21.298, NaN,NaN,NaN, NaN, NaN
20050701,000226,185652,32.707196,-117.236738,0.0,21.294,0.048,0.086,1092.38,0.0,0.727,18.738,18.702, NaN,0.000,   NaN,18.09,1010.76,85.03,18.53,130.4,130.2,2.9,3.7,313.3,313.1,2.9,3.7,NaN, NaN,29.2,266.5,192.1,1120176148,1120176148,1,0.0,000147,000148,182.3,32.707326,-117.236710,NaN,NaN,NaN,21.299, NaN,NaN,NaN, NaN, NaN
20050701,000257,185682,32.707196,-117.236743,0.0,21.294,0.048,0.086,1332.31,0.0,0.727,18.730,18.692, NaN,0.000,   NaN,17.99,1010.77,85.31,18.47,126.9,134.8,2.8,3.4,309.6,317.5,2.8,3.4,NaN, NaN,28.1,266.5,192.1,1120176178,1120176178,1,0.0,000177,000178,183.6,32.707320,-117.236703,NaN,NaN,NaN,21.299, NaN,NaN,NaN, NaN, NaN
20050701,000326,185712,32.707195,-117.236738,0.0,21.296,0.048,0.086,1498.76,0.0,0.727,18.721,18.684, NaN,0.000,   NaN,18.03,1010.75,85.76,18.45,136.9,141.7,2.0,2.6,320.1,324.9,2.0,2.6,NaN, NaN,27.7,266.5,192.1,1120176208,1120176208,1,0.0,000207,000208,183.1,32.707318,-117.236707,NaN,NaN,NaN,21.301, NaN,NaN,NaN, NaN, NaN
20050701,000357,185743,32.707195,-117.236742,0.0,21.296,0.048,0.086,1732.26,0.0,0.727,18.715,18.677, NaN,0.000,   NaN,18.16,1010.74,85.95,18.51,129.3,127.1,1.8,2.3,312.7,310.4,1.8,2.3,NaN, NaN,28.9,266.5,192.1,1120176238,1120176238,1,0.0,000237,000238,183.1,32.707310,-117.236705,NaN,NaN,NaN,21.301, NaN,NaN,NaN, NaN, NaN
20050701,000426,185771,32.707191,-117.236737,0.0,21.298,0.048,0.086,1924.52,0.0,0.727,18.710,18.672, NaN,0.000,   NaN,18.25,1010.72,85.73,18.57,115.3,114.4,2.7,2.9,298.2,297.3,2.7,2.9,NaN, NaN,29.4,266.5,192.1,1120176268,1120176268,1,0.0,000267,000268,182.5,32.707300,-117.236708,NaN,NaN,NaN,21.303, NaN,NaN,NaN, NaN, NaN
20050701,000456,185802,32.707193,-117.236740,0.0,21.299,0.048,0.086,1438.79,0.0,0.708,18.704,18.665, NaN,0.000,   NaN,18.11,1010.69,85.48,18.51,104.1,114.8,3.2,3.5,286.9,297.6,3.2,3.5,NaN, NaN,29.6,266.5,192.1,1120176298,1120176298,1,0.0,000297,000298,183.0,32.707308,-117.236707,NaN,NaN,NaN,21.304, NaN,NaN,NaN, NaN, NaN
20050701,000527,185832,32.707196,-117.236737,0.0,21.300,0.048,0.086,1442.55,0.0,0.727,18.696,18.659, NaN,0.000,   NaN,18.12,1010.70,85.90,18.45,99.9,119.3,3.1,3.5,282.7,302.1,3.1,3.5,NaN, NaN,29.2,266.5,192.1,1120176328,1120176328,1,0.0,000327,000328,183.0,32.707311,-117.236703,NaN,NaN,NaN,21.305, NaN,NaN,NaN, NaN, NaN
20050701,000556,185862,32.707193,-117.236738,0.0,21.302,0.048,0.086,1312.25,0.0,0.727,18.688,18.650, NaN,0.000,   NaN,18.21,1010.71,86.11,18.49,114.1,124.4,2.7,2.7,297.2,307.5,2.7,2.7,NaN, NaN,28.8,266.5,192.1,1120176358,1120176358,1,0.0,000357,000358,183.3,32.707323,-117.236708,NaN,NaN,NaN,21.307, NaN,NaN,NaN, NaN, NaN
20050701,000627,185893,32.707191,-117.236738,0.0,21.303,0.048,0.086,1613.91,0.0,0.727,18.682,18.644, NaN,0.000,   NaN,18.28,1010.73,85.94,18.54,121.1,119.9,2.0,2.2,304.2,303.0,2.0,2.2,NaN, NaN,29.3,266.5,192.1,1120176388,1120176388,1,0.0,000387,000388,182.5,32.707320,-117.236710,NaN,NaN,NaN,21.308, NaN,NaN,NaN, NaN, NaN
20050701,000656,185921,32.707200,-117.236735,0.0,21.305,0.048,0.086,2001.89,0.0,0.727,18.680,18.641, NaN,0.000,   NaN,18.21,1010.62,85.41,18.55,116.4,113.0,2.8,3.4,298.9,295.5,2.8,3.4,NaN, NaN,26.3,266.5,192.1,1120176418,1120176418,1,0.0,000417,000418,182.5,32.707316,-117.236708,NaN,NaN,NaN,21.310, NaN,NaN,NaN, NaN, NaN
20050701,000726,185951,32.707203,-117.236738,0.0,21.306,0.048,0.086,2030.75,0.0,0.727,18.676,18.638, NaN,0.000,   NaN,18.08,1010.66,85.45,18.45,122.3,120.7,3.4,4.1,304.9,303.3,3.4,4.1,NaN, NaN,26.5,266.5,192.1,1120176448,1120176448,1,0.0,000447,000448,182.8,32.707318,-117.236693,NaN,NaN,NaN,21.311, NaN,NaN,NaN, NaN, NaN
20050701,000756,185982,32.707200,-117.236737,0.0,21.306,0.048,0.086,1768.78,0.0,0.708,18.673,18.633, NaN,0.000,   NaN,18.09,1010.65,85.86,18.45,128.1,127.5,2.8,3.1,310.9,310.3,2.8,3.1,NaN, NaN,26.2,266.5,192.1,1120176478,1120176478,1,0.0,000477,000478,182.6,32.707315,-117.236700,NaN,NaN,NaN,21.311, NaN,NaN,NaN, NaN, NaN
20050701,000826,186012,32.707203,-117.236742,0.0,21.308,0.048,0.086,1797.13,0.0,0.727,18.671,18.632, NaN,0.000,   NaN,18.19,1010.65,86.15,18.50,138.8,139.2,2.5,2.6,321.8,322.2,2.5,2.6,NaN, NaN,26.4,266.5,192.1,1120176508,1120176508,1,0.0,000507,000508,183.7,32.707321,-117.236703,NaN,NaN,NaN,21.313, NaN,NaN,NaN, NaN, NaN
20050701,000856,186042,32.707201,-117.236740,0.0,21.308,0.048,0.086,2078.48,0.0,0.727,18.671,18.633, NaN,0.000,   NaN,18.22,1010.63,85.87,18.52,144.5,142.1,2.6,3.0,327.8,325.4,2.6,3.0,NaN, NaN,26.9,266.5,192.1,1120176538,1120176538,1,0.0,000537,000538,183.5,32.707325,-117.236715,NaN,NaN,NaN,21.313, NaN,NaN,NaN, NaN, NaN
20050701,000927,186073,32.707200,-117.236737,0.0,21.310,0.048,0.086,2066.98,0.0,0.727,18.673,18.634, NaN,0.000,   NaN,18.22,1010.61,85.91,18.51,141.0,134.8,2.3,2.6,324.2,318.1,2.3,2.6,NaN, NaN,27.6,266.5,192.1,1120176568,1120176568,1,0.0,000567,000568,183.0,32.707320,-117.236702,NaN,NaN,NaN,21.315, NaN,NaN,NaN, NaN, NaN
20050701,000956,186101,32.707198,-117.236737,0.0,21.311,0.048,0.086,2048.95,0.0,0.727,18.674,18.634, NaN,0.000,   NaN,18.34,1010.63,86.15,18.56,134.9,128.8,2.1,2.4,318.1,312.0,2.1,2.4,NaN, NaN,27.6,266.5,192.1,1120176598,1120176598,1,0.0,000597,000598,183.5,32.707325,-117.236685,NaN,NaN,NaN,21.316, NaN,NaN,NaN, NaN, NaN
20050701,001027,186133,32.707198,-117.236738,0.0,21.313,0.048,0.086,1703.42,0.0,0.727,18.676,18.636, NaN,0.000,   NaN,18.41,1010.60,86.07,18.61,133.7,128.6,2.4,3.0,317.0,311.8,2.4,3.0,NaN, NaN,28.0,266.5,192.1,1120176628,1120176628,1,0.0,000627,000628,183.0,32.707313,-117.236697,NaN,NaN,NaN,21.318, NaN,NaN,NaN, NaN, NaN
20050701,001056,186162,32.707201,-117.236737,0.0,21.314,0.048,0.086,1386.80,0.0,0.727,18.680,18.640, NaN,0.000,   NaN,18.42,1010.63,85.95,18.65,125.9,122.9,2.7,2.9,309.1,306.1,2.7,2.9,NaN, NaN,27.5,266.5,192.1,1120176658,1120176658,1,0.0,000657,000658,183.0,32.707311,-117.236695,NaN,NaN,NaN,21.319, NaN,NaN,NaN, NaN, NaN
20050701,001126,186192,32.707201,-117.236740,0.0,21.315,0.048,0.086,1680.45,0.0,0.727,18.686,18.647, NaN,0.000,   NaN,18.41,1010.61,85.72,18.64,136.5,136.0,2.3,2.5,319.5,319.0,2.3,2.5,NaN, NaN,27.6,266.5,192.1,1120176688,1120176688,1,0.0,000687,000688,183.3,32.707306,-117.236708,NaN,NaN,NaN,21.320, NaN,NaN,NaN, NaN, NaN
20050701,001157,186223,32.707193,-117.236738,0.0,21.316,0.048,0.086,2168.29,0.0,0.727,18.697,18.655, NaN,0.000,   NaN,18.48,1010.59,85.94,18.68,154.4,150.3,1.8,1.9,337.7,333.5,1.8,1.9,NaN, NaN,27.9,266.5,192.1,1120176719,1120176719,1,0.0,000718,000719,183.6,32.707295,-117.236703,NaN,NaN,NaN,21.321, NaN,NaN,NaN, NaN, NaN
20050701,001226,186251,32.707193,-117.236738,0.0,21.317,0.048,0.086,1640.46,0.0,0.746,18.707,18.667, NaN,0.000,   NaN,18.64,1010.54,86.13,18.76,155.5,153.6,1.5,1.6,338.9,337.0,1.5,1.6,NaN, NaN,28.2,266.5,192.1,1120176748,1120176748,1,0.0,000747,000748,183.3,32.707305,-117.236687,NaN,NaN,NaN,21.322, NaN,NaN,NaN, NaN, NaN
20050701,001257,186283,32.707193,-117.236737,0.0,21.318,0.048,0.086,1857.63,0.0,0.727,18.721,18.684, NaN,0.000,   NaN,18.79,1010.54,86.03,18.87,136.7,159.9,1.1,2.1,320.0,343.3,1.1,2.1,NaN, NaN,27.8,266.5,192.1,1120176779,1120176779,1,0.0,000778,000779,183.3,32.707303,-117.236682,NaN,NaN,NaN,21.323, NaN,NaN,NaN, NaN, NaN
20050701,001326,186312,32.707198,-117.236738,0.0,21.319,0.048,0.086,1606.28,0.0,0.727,18.739,18.701, NaN,0.000,   NaN,18.96,1010.55,85.93,18.98,112.1,142.0,1.2,2.1,295.3,325.3,1.2,2.1,NaN, NaN,27.8,266.5,192.1,1120176808,1120176808,1,0.0,000807,000808,183.0,32.707296,-117.236672,NaN,NaN,NaN,21.324, NaN,NaN,NaN, NaN, NaN
20050701,001356,186342,32.707196,-117.236735,0.0,21.320,0.048,0.086,1639.49,0.0,0.727,18.754,18.716, NaN,0.000,   NaN,18.89,1010.55,85.12,18.99,112.9,115.7,1.6,1.9,296.1,298.8,1.6,1.9,NaN, NaN,27.2,266.5,192.1,1120176838,1120176838,1,0.0,000837,000838,183.1,32.707293,-117.236672,NaN,NaN,NaN,21.325, NaN,NaN,NaN, NaN, NaN
20050701,001427,186373,32.707201,-117.236735,0.0,21.321,0.048,0.086,1707.77,0.0,0.708,18.771,18.733, NaN,0.000,   NaN,18.82,1010.55,85.04,18.98,136.3,126.7,2.7,2.9,319.5,309.9,2.7,2.9,NaN, NaN,26.4,266.5,192.1,1120176869,1120176869,1,0.0,000868,000869,183.3,32.707320,-117.236667,NaN,NaN,NaN,21.326, NaN,NaN,NaN, NaN, NaN
20050701,001456,186401,32.707193,-117.236735,0.0,21.322,0.048,0.086,1923.23,0.0,0.727,18.788,18.750, NaN,0.000,   NaN,18.70,1010.56,84.77,18.91,144.9,142.1,3.1,3.8,328.2,325.5,3.1,3.8,NaN, NaN,25.5,266.5,192.1,1120176898,1120176898,1,0.0,000897,000898,183.3,32.707321,-117.236673,NaN,NaN,NaN,21.327, NaN,NaN,NaN, NaN, NaN
20050701,001527,186433,32.707203,-117.236733,0.0,21.323,0.048,0.086,1754.34,0.0,0.727,18.805,18.767, NaN,0.000,   NaN,18.68,1010.55,84.87,18.89,147.7,145.7,3.1,4.0,331.0,329.1,3.1,4.0,NaN, NaN,23.3,266.5,192.1,1120176928,1120176928,1,0.0,000927,000928,183.5,32.707331,-117.236692,NaN,NaN,NaN,21.328, NaN,NaN,NaN, NaN, NaN
20050701,001556,186462,32.707206,-117.236735,0.0,21.324,0.048,0.086,1624.45,0.0,0.727,18.818,18.781, NaN,0.000,   NaN,18.53,1010.54,84.59,18.82,141.8,137.9,3.3,4.2,325.1,321.2,3.3,4.2,NaN, NaN,22.9,266.5,192.1,1120176958,1120176958,1,0.0,000957,000958,183.1,32.707320,-117.236692,NaN,NaN,NaN,21.329, NaN,NaN,NaN, NaN, NaN
20050701,001627,186492,32.707208,-117.236737,0.0,21.325,0.048,0.086,1694.31,0.0,0.727,18.828,18.790, NaN,0.000,   NaN,18.39,1010.51,84.68,18.74,146.0,139.9,3.8,4.3,329.2,323.0,3.8,4.3,NaN, NaN,22.8,266.5,192.1,1120176988,1120176988,1,0.0,000987,000988,183.1,32.707308,-117.236685,NaN,NaN,NaN,21.330, NaN,NaN,NaN, NaN, NaN
20050701,001656,186522,32.707205,-117.236737,0.0,21.326,0.048,0.086,1859.19,0.0,0.727,18.830,18.794, NaN,0.000,   NaN,18.26,1010.51,84.84,18.66,157.4,149.0,4.2,4.6,340.6,332.2,4.2,4.6,NaN, NaN,21.6,266.5,192.1,1120177018,1120177018,1,0.0,001017,001018,183.4,32.707325,-117.236700,NaN,NaN,NaN,21.331, NaN,NaN,NaN, NaN, NaN
20050701,001727,186553,32.707213,-117.236740,0.0,21.327,0.048,0.086,1585.30,0.0,0.727,18.828,18.794, NaN,0.000,   NaN,18.16,1010.49,85.15,18.61,148.8,139.6,3.6,4.2,332.2,322.9,3.6,4.2,NaN, NaN,20.0,266.5,192.1,1120177048,1120177048,1,0.0,001047,001048,183.1,32.707310,-117.236697,NaN,NaN,NaN,21.332, NaN,NaN,NaN, NaN, NaN
20050701,001756,186581,32.707213,-117.236738,0.0,21.329,0.048,0.086,1874.17,0.0,0.727,18.830,18.793, NaN,0.000,   NaN,18.17,1010.50,85.68,18.60,146.6,140.1,2.6,3.0,329.9,323.4,2.6,3.0,NaN, NaN,19.7,266.5,192.1,1120177078,1120177078,1,0.0,001077,001078,183.1,32.707310,-117.236693,NaN,NaN,NaN,21.334, NaN,NaN,NaN, NaN, NaN
20050701,001827,186613,32.707213,-117.236738,0.0,21.330,0.048,0.086,1951.95,0.0,0.727,18.830,18.792, NaN,0.000,   NaN,18.24,1010.49,85.77,18.65,138.7,145.8,2.1,2.2,321.8,329.0,2.1,2.2,NaN, NaN,19.6,266.5,192.1,1120177108,1120177108,1,0.0,001107,001108,183.0,32.707301,-117.236692,NaN,NaN,NaN,21.335, NaN,NaN,NaN, NaN, NaN
20050701,001856,186642,32.707211,-117.236742,0.0,21.330,0.048,0.086,1655.31,0.0,0.727,18.828,18.790, NaN,0.000,   NaN,18.32,1010.50,85.89,18.66,139.6,143.2,2.6,2.7,322.7,326.4,2.6,2.7,NaN, NaN,19.2,266.5,192.1,1120177138,1120177138,1,0.0,001137,001138,183.5,32.707318,-117.236690,NaN,NaN,NaN,21.335, NaN,NaN,NaN, NaN, NaN
20050701,001927,186672,32.707210,-117.236740,0.0,21.331,0.048,0.086,1790.81,0.0,0.708,18.828,18.789, NaN,0.000,   NaN,18.33,1010.47,85.87,18.67,154.8,146.6,2.5,3.0,338.2,329.9,2.5,3.0,NaN, NaN,18.7,266.5,192.1,1120177168,1120177168,1,0.0,001167,001168,183.5,32.707325,-117.236677,NaN,NaN,NaN,21.336, NaN,NaN,NaN, NaN, NaN
20050701,001956,186702,32.707215,-117.236737,0.0,21.332,0.048,0.086,1902.79,0.0,0.727,18.828,18.789, NaN,0.000,   NaN,18.36,1010.49,85.74,18.70,152.5,146.4,2.7,3.1,335.9,329.7,2.7,3.1,NaN, NaN,19.3,266.5,192.1,1120177198,1120177198,1,0.0,001197,001198,183.4,32.707315,-117.236687,NaN,NaN,NaN,21.337, NaN,NaN,NaN, NaN, NaN
20050701,002027,186733,32.707206,-117.236737,0.0,21.332,0.048,0.086,1985.04,0.0,0.708,18.826,18.789, NaN,0.000,   NaN,18.31,1010.49,85.54,18.67,148.4,151.8,3.0,3.2,331.7,335.0,3.0,3.2,NaN, NaN,21.0,266.5,192.1,1120177229,1120177229,1,0.0,001228,001229,183.0,32.707303,-117.236683,NaN,NaN,NaN,21.337, NaN,NaN,NaN, NaN, NaN
20050701,002056,186761,32.707206,-117.236735,0.0,21.334,0.048,0.086,2055.67,0.0,0.708,18.820,18.785, NaN,0.000,   NaN,18.33,1010.46,85.74,18.66,128.3,135.1,2.1,2.5,311.4,318.3,2.1,2.5,NaN, NaN,22.5,266.5,192.1,1120177258,1120177258,1,0.0,001257,001258,183.0,32.707325,-117.236687,NaN,NaN,NaN,21.339, NaN,NaN,NaN, NaN, NaN
20050701,002126,186791,32.707203,-117.236740,0.0,21.335,0.048,0.086,1987.74,0.0,0.727,18.816,18.777, NaN,0.000,   NaN,18.38,1010.47,85.70,18.69,110.9,111.3,2.2,2.5,294.0,294.4,2.2,2.5,NaN, NaN,23.5,266.5,192.1,1120177288,1120177288,1,0.0,001287,001288,183.2,32.707328,-117.236700,NaN,NaN,NaN,21.340, NaN,NaN,NaN, NaN, NaN
20050701,002157,186822,32.707208,-117.236745,0.0,21.336,0.048,0.086,1956.22,0.0,0.727,18.812,18.774, NaN,0.000,   NaN,18.39,1010.44,85.71,18.70,107.2,109.2,2.7,2.1,290.2,292.3,2.7,2.1,NaN, NaN,25.0,266.5,192.1,1120177319,1120177319,1,0.0,001318,001319,182.6,32.707325,-117.236708,NaN,NaN,NaN,21.341, NaN,NaN,NaN, NaN, NaN
20050701,002226,186852,32.707200,-117.236740,0.0,21.336,0.048,0.086,1946.96,0.0,0.727,18.808,18.770, NaN,0.000,   NaN,18.48,1010.47,85.92,18.71,119.5,127.7,2.1,1.8,302.2,310.4,2.1,1.8,NaN, NaN,26.2,266.5,192.1,1120177348,1120177348,1,0.0,001347,001348,183.1,32.707325,-117.236705,NaN,NaN,NaN,21.341, NaN,NaN,NaN, NaN, NaN
20050701,002257,186883,32.707200,-117.236740,0.0,21.338,0.048,0.086,1977.16,0.0,0.727,18.798,18.761, NaN,0.000,   NaN,18.65,1010.45,86.02,18.83,147.4,155.3,1.5,2.3,330.5,338.4,1.5,2.3,NaN, NaN,27.0,266.5,192.1,1120177378,1120177378,1,0.0,001377,001378,183.0,32.707326,-117.236705,NaN,NaN,NaN,21.343, NaN,NaN,NaN, NaN, NaN
20050701,002326,186911,32.707206,-117.236743,0.0,21.338,0.048,0.086,1985.67,0.0,0.727,18.792,18.754, NaN,0.000,   NaN,18.75,1010.45,85.77,18.90,162.2,166.2,1.8,2.5,345.5,349.5,1.8,2.5,NaN, NaN,26.8,266.5,192.1,1120177408,1120177408,1,0.0,001407,001408,183.0,32.707326,-117.236713,NaN,NaN,NaN,21.343, NaN,NaN,NaN, NaN, NaN
20050701,002357,186943,32.707206,-117.236743,0.0,21.340,0.048,0.086,1969.64,0.0,0.727,18.788,18.749, NaN,0.000,   NaN,18.86,1010.42,85.67,18.99,158.6,164.7,2.0,2.6,341.4,347.5,2.0,2.6,NaN, NaN,26.7,266.5,192.1,1120177439,1120177439,1,0.0,001438,001439,182.5,32.707315,-117.236703,NaN,NaN,NaN,21.345, NaN,NaN,NaN, NaN, NaN
20050701,002427,186973,32.707203,-117.236743,0.0,21.341,0.048,0.086,1963.20,0.0,0.727,18.785,18.745, NaN,0.000,   NaN,18.98,1010.41,85.41,19.11,148.7,147.6,2.1,2.6,331.6,330.5,2.1,2.6,NaN, NaN,25.5,266.5,192.1,1120177469,1120177469,1,0.0,001468,001469,183.8,32.707326,-117.236707,NaN,NaN,NaN,21.346, NaN,NaN,NaN, NaN, NaN
20050701,002457,187002,32.707203,-117.236743,0.0,21.342,0.048,0.086,1923.28,0.0,0.746,18.781,18.742, NaN,0.000,   NaN,18.91,1010.42,84.83,19.09,138.9,139.4,1.8,2.4,322.2,322.7,1.8,2.4,NaN, NaN,25.2,266.5,192.1,1120177498,1120177498,1,0.0,001497,001498,183.0,32.707328,-117.236708,NaN,NaN,NaN,21.347, NaN,NaN,NaN, NaN, NaN
20050701,002527,187032,32.707203,-117.236742,0.0,21.342,0.048,0.086,1991.15,0.0,0.727,18.779,18.739, NaN,0.000,   NaN,18.98,1010.43,84.73,19.10,114.7,117.9,1.9,2.6,297.9,301.1,1.9,2.6,NaN, NaN,24.1,266.5,192.1,1120177529,1120177529,1,0.0,001528,001529,183.0,32.707348,-117.236705,NaN,NaN,NaN,21.347, NaN,NaN,NaN, NaN, NaN
20050701,002556,187062,32.707206,-117.236740,0.0,21.344,0.048,0.086,1906.48,0.0,0.727,18.773,18.736, NaN,0.000,   NaN,18.90,1010.44,84.20,19.08,117.7,111.7,2.9,3.3,300.7,294.7,2.9,3.3,NaN, NaN,23.0,266.5,192.1,1120177558,1120177558,1,0.0,001557,001558,183.3,32.707330,-117.236702,NaN,NaN,NaN,21.349, NaN,NaN,NaN, NaN, NaN
20050701,002627,187093,32.707205,-117.236743,0.0,21.345,0.048,0.086,1999.67,0.0,0.727,18.770,18.735, NaN,0.000,   NaN,18.85,1010.45,84.34,19.07,128.9,123.9,2.7,2.8,312.0,307.0,2.7,2.8,NaN, NaN,21.9,266.5,192.1,1120177589,1120177589,1,0.0,001588,001589,182.9,32.707316,-117.236708,NaN,NaN,NaN,21.350, NaN,NaN,NaN, NaN, NaN
20050701,002656,187121,32.707206,-117.236745,0.0,21.346,0.048,0.086,1942.06,0.0,0.727,18.770,18.729, NaN,0.000,   NaN,18.86,1010.43,84.37,19.06,132.4,133.6,1.7,1.7,315.5,316.7,1.7,1.7,NaN, NaN,21.4,266.5,192.1,1120177618,1120177618,1,0.0,001617,001618,182.6,32.707325,-117.236713,NaN,NaN,NaN,21.351, NaN,NaN,NaN, NaN, NaN
20050701,002727,187153,32.707205,-117.236747,0.0,21.346,0.048,0.086,1944.03,0.0,0.727,18.766,18.725, NaN,0.000,   NaN,18.91,1010.45,84.39,19.11,147.6,145.6,1.4,1.6,330.4,328.4,1.4,1.6,NaN, NaN,20.9,266.5,192.1,1120177649,1120177649,1,0.0,001648,001649,183.0,32.707326,-117.236698,NaN,NaN,NaN,21.351, NaN,NaN,NaN, NaN, NaN
20050701,002757,187182,32.707205,-117.236745,0.0,21.348,0.048,0.086,1969.72,0.0,0.727,18.760,18.720, NaN,0.000,   NaN,18.95,1010.43,84.29,19.15,141.6,139.0,1.7,1.9,324.7,322.1,1.7,1.9,NaN, NaN,20.5,266.5,192.1,1120177678,1120177678,1,0.0,001677,001678,183.5,32.707328,-117.236712,NaN,NaN,NaN,21.353, NaN,NaN,NaN, NaN, NaN
20050701,002826,187212,32.707208,-117.236740,0.0,21.348,0.048,0.086,1955.47,0.0,0.727,18.757,18.715, NaN,0.000,   NaN,18.92,1010.43,83.74,19.19,109.7,121.2,2.8,3.0,292.9,304.3,2.8,3.0,NaN, NaN,20.8,266.5,192.1,1120177708,1120177708,1,0.0,001707,001708,182.5,32.707330,-117.236702,NaN,NaN,NaN,21.353, NaN,NaN,NaN, NaN, NaN
20050701,002857,187243,32.707206,-117.236743,0.0,21.349,0.048,0.086,1904.41,0.0,0.708,18.752,18.712, NaN,0.000,   NaN,18.67,1010.41,83.60,19.04,103.5,117.5,3.3,3.7,286.4,300.4,3.3,3.7,NaN, NaN,22.2,266.5,192.1,1120177738,1120177738,1,0.0,001737,001738,183.5,32.707340,-117.236695,NaN,NaN,NaN,21.354, NaN,NaN,NaN, NaN, NaN
20050701,002927,187273,32.707210,-117.236743,0.0,21.350,0.048,0.086,1908.33,0.0,0.746,18.747,18.707, NaN,0.000,   NaN,18.63,1010.45,84.15,18.99,125.9,132.2,2.3,2.8,308.9,315.2,2.3,2.8,NaN, NaN,23.3,266.5,192.1,1120177769,1120177769,1,0.0,001768,001769,182.6,32.707326,-117.236712,NaN,NaN,NaN,21.355, NaN,NaN,NaN, NaN, NaN
20050701,002957,187303,32.707208,-117.236740,0.0,21.351,0.048,0.086,1997.09,0.0,0.727,18.740,18.700, NaN,0.000,   NaN,18.67,1010.38,84.36,19.03,149.4,140.6,2.1,2.8,332.3,323.5,2.1,2.8,NaN, NaN,23.7,266.5,192.1,1120177798,1120177798,1,0.0,001797,001798,183.1,32.707335,-117.236718,NaN,NaN,NaN,21.356, NaN,NaN,NaN, NaN, NaN
20050701,003027,187332,32.707206,-117.236737,0.0,21.352,0.048,0.086,1952.45,0.0,0.727,18.732,18.694, NaN,0.000,   NaN,18.63,1010.41,83.95,19.02,136.9,130.6,3.4,3.8,319.9,313.6,3.4,3.8,NaN, NaN,24.5,266.5,192.1,1120177829,1120177829,1,0.0,001828,001829,183.0,32.707338,-117.236718,NaN,NaN,NaN,21.357, NaN,NaN,NaN, NaN, NaN
20050701,003057,187362,32.707205,-117.236738,0.0,21.353,0.048,0.086,1849.39,0.0,0.727,18.726,18.688, NaN,0.000,   NaN,18.48,1010.40,83.92,18.94,117.4,120.3,4.0,4.6,300.5,303.3,4.0,4.6,NaN, NaN,23.8,266.5,192.1,1120177858,1120177858,1,0.0,001857,001858,183.0,32.707346,-117.236707,NaN,NaN,NaN,21.358, NaN,NaN,NaN, NaN, NaN
20050701,003127,187393,32.707206,-117.236743,0.0,21.353,0.048,0.086,1886.16,0.0,0.727,18.718,18.679, NaN,0.000,   NaN,18.35,1010.37,84.24,18.84,105.9,117.7,3.2,3.4,288.7,300.6,3.2,3.4,NaN, NaN,23.0,266.5,192.1,1120177889,1120177889,1,0.0,001888,001889,182.6,32.707335,-117.236720,NaN,NaN,NaN,21.358, NaN,NaN,NaN, NaN, NaN
20050701,003157,187423,32.707205,-117.236747,0.0,21.354,0.048,0.086,1919.78,0.0,0.727,18.714,18.673, NaN,0.000,   NaN,18.45,1010.37,84.91,18.87,124.8,130.4,2.3,2.9,307.6,313.3,2.3,2.9,NaN, NaN,21.5,266.5,192.1,1120177918,1120177918,1,0.0,001917,001918,183.3,32.707315,-117.236723,NaN,NaN,NaN,21.359, NaN,NaN,NaN, NaN, NaN
20050701,003227,187453,32.707208,-117.236747,0.0,21.355,0.048,0.086,1938.36,0.0,0.746,18.709,18.669, NaN,0.000,   NaN,18.49,1010.38,84.75,18.88,154.9,141.9,2.3,3.6,338.0,325.0,2.3,3.6,NaN, NaN,22.2,266.5,192.1,1120177949,1120177949,1,0.0,001948,001949,183.5,32.707330,-117.236703,NaN,NaN,NaN,21.360, NaN,NaN,NaN, NaN, NaN
20050701,003257,187483,32.707206,-117.236740,0.0,21.356,0.048,0.086,1923.93,0.0,0.727,18.708,18.668, NaN,0.000,   NaN,18.49,1010.34,84.61,18.90,122.1,131.1,2.3,3.0,305.3,314.3,2.3,3.0,NaN, NaN,22.1,266.5,192.1,1120177979,1120177979,1,0.0,001978,001979,183.1,32.707328,-117.236707,NaN,NaN,NaN,21.361, NaN,NaN,NaN, NaN, NaN
20050701,003327,187512,32.707206,-117.236742,0.0,21.357,0.048,0.086,1906.26,0.0,0.727,18.708,18.665, NaN,0.000,   NaN,18.45,1010.33,84.52,18.89,113.8,122.7,2.2,2.6,296.9,305.7,2.2,2.6,NaN, NaN,23.2,266.5,192.1,1120178009,1120178009,1,0.0,002008,002009,183.1,32.707325,-117.236698,NaN,NaN,NaN,21.362, NaN,NaN,NaN, NaN, NaN
20050701,003357,187542,32.707203,-117.236740,0.0,21.358,0.048,0.086,1889.18,0.0,0.746,18.705,18.662, NaN,0.000,   NaN,18.46,1010.30,84.79,18.85,137.9,136.3,2.5,2.6,321.1,319.5,2.5,2.6,NaN, NaN,22.6,266.5,192.1,1120178039,1120178039,1,0.0,002038,002039,183.3,32.707321,-117.236708,NaN,NaN,NaN,21.363, NaN,NaN,NaN, NaN, NaN
20050701,003427,187573,32.707210,-117.236740,0.0,21.359,0.048,0.086,1885.02,0.0,0.727,18.701,18.660, NaN,0.000,   NaN,18.48,1010.29,84.72,18.85,139.2,139.9,2.6,2.3,322.5,323.2,2.6,2.3,NaN, NaN,22.6,266.5,192.1,1120178069,1120178069,1,0.0,002068,002069,183.1,32.707326,-117.236710,NaN,NaN,NaN,21.364, NaN,NaN,NaN, NaN, NaN
20050701,003457,187603,32.707203,-117.236742,0.0,21.360,0.048,0.086,1937.63,0.0,0.727,18.700,18.662, NaN,0.000,   NaN,18.49,1010.32,84.76,18.86,147.2,141.3,3.1,2.9,330.4,324.5,3.1,2.9,NaN, NaN,22.8,266.5,192.1,1120178098,1120178098,1,0.0,002097,002098,183.2,32.707338,-117.236712,NaN,NaN,NaN,21.365, NaN,NaN,NaN, NaN, NaN
20050701,003527,187633,32.707210,-117.236743,0.0,21.361,0.048,0.086,1900.17,0.0,0.727,18.702,18.664, NaN,0.000,   NaN,18.35,1010.28,84.31,18.82,141.9,141.1,3.1,3.4,325.0,324.1,3.1,3.4,NaN, NaN,22.3,266.5,192.1,1120178129,1120178129,1,0.0,002128,002129,183.0,32.707336,-117.236722,NaN,NaN,NaN,21.366, NaN,NaN,NaN, NaN, NaN
20050701,003557,187662,32.707205,-117.236742,0.0,21.362,0.048,0.086,1917.89,0.0,0.727,18.703,18.664, NaN,0.000,   NaN,18.31,1010.29,84.77,18.76,117.5,126.8,2.3,2.2,300.6,309.9,2.3,2.2,NaN, NaN,21.8,266.5,192.1,1120178159,1120178159,1,0.0,002158,002159,183.1,32.707321,-117.236723,NaN,NaN,NaN,21.367, NaN,NaN,NaN, NaN, NaN
20050701,003627,187692,32.707201,-117.236743,0.0,21.363,0.047,0.086,1918.66,0.0,0.727,18.706,18.665, NaN,0.000,   NaN,18.29,1010.25,84.70,18.76,106.8,130.8,1.7,1.6,295.4,313.9,1.7,1.6,NaN, NaN,22.8,266.5,192.1,1120178189,1120178189,1,0.0,002188,002189,182.6,32.707306,-117.236715,NaN,NaN,NaN,21.368, NaN,NaN,NaN, NaN, NaN
20050701,003657,187723,32.707198,-117.236742,0.0,21.363,0.047,0.086,1902.90,0.0,0.708,18.709,18.669, NaN,0.000,   NaN,18.37,1010.33,85.17,18.76,117.4,138.3,2.0,1.8,308.8,321.2,2.0,1.8,NaN, NaN,24.0,266.5,192.1,1120178219,1120178219,1,0.0,002218,002219,183.3,32.707295,-117.236712,NaN,NaN,NaN,21.368, NaN,NaN,NaN, NaN, NaN